Portada
METAR-TAF:

METAR-TAF

Aeroports :

Sapporo, Japó

latitud: 43-07N, longitud: 141-23E, altitud: 8 m

Observació

L'informe es va fer fa 5 hores i 48 minuts, a les 11:00 UTC
Vent 4 kt del Nord-Est
Temperatura -3°C
Humitat 100%
Pressió 1023 hPa
Visibilitat: 2000 m
Escasses núvols a una alçada de 400 ft
Cel ennuvolat a una alçada de 1500 ft
Cel ennuvolat a una alçada de 2500 ft
neu,

METAR: RJCO 261100Z 05004KT 2000 -SN FEW004 BKN015 BKN025 M03/M03 Q1023

Hora: 01:48 (16:48 UTC)


TAF: manca

Observacions i pronòstics meteorològics de més de 4000 aeroports (METAR i TAF).

Les estacions disponibles són els punts grocs i vermells al mapa.

Posi el ratolí al punt desitjat per veure el nom de l'estació.

Feu clic per veure les observacions i els pronòstics meteorològics.

Per canviar el mapa: feu clic els botons verds amb una creu de color negre per apropar; al botó verd amb un guió per allunyar la imatge; o en les fletxes verdes per a mapes adjacents.


METAR-TAF: